St. Petersburg, FL

3:30 AM EDT on May 01, 2017 (GMT -0400)
Whitted

Weather History for KSPG - September, 2013

Change the Weather History Date:

Wednesday, September 4, 2013

  Actual Average Record
Temperature  
Mean Temperature 85 °F -  
Max Temperature 93 °F 90 °F 94 °F (1988)
Min Temperature 79 °F 76 °F 71 °F (1964)
Cooling Degree Days 20    
Growing Degree Days 35 (Base 50)    
Moisture  
Dew Point 76 °F    
Average Humidity 77    
Maximum Humidity 88    
Minimum Humidity 55    
Precipitation  
Precipitation 0.30 in - - ()
Sea Level Pressure  
Sea Level Pressure 30.02 in    
Wind  
Wind Speed 5 mph (East)    
Max Wind Speed 12 mph    
Max Gust Speed 30 mph    
Visibility 9 miles    
Events Rain    
Averages and records for this station are not official NWS values.
T = Trace of Precipitation, MM = Missing Value Source: NWS Daily Summary

Daily Weather History Graph

Daily Weather History Graph

Search for Another Location

Airport or City:

Trip Planner

Search our weather history database for the weather conditions in past years. The results will help you decide how hot, cold, wet, or windy it might be!

Date:

Astronomy

Sep. 04, 2013 Rise Set
Actual Time 7:10 AM EDT 7:47 PM EDT
Civil Twilight 6:47 AM EDT 8:11 PM EDT
Nautical Twilight 6:19 AM EDT 8:39 PM EDT
Astronomical Twilight 5:50 AM EDT 9:07 PM EDT
Moon 6:21 AM EDT (9/4) 7:09 PM EDT (9/4)
Length of Visible Light 13h 24m
Length of Day
12h 36m
Waning Crescent, 1% of the Moon is Illuminated
Sep 4
Waning Crescent
Sep 5
New
Sep 12
First Quarter
Sep 19
Full
Sep 26
Last Quarter

Hourly Weather History & Observations

Time (EDT) Temp. Heat Index Dew Point Humidity Pressure Visibility Wind Dir Wind Speed Gust Speed Precip Events Conditions
12:53 AM 84.0 °F 92.6 °F 75.9 °F 76% 30.00 in 10.0 mi Calm Calm - N/A   Clear
1:53 AM 84.0 °F 93.7 °F 77.0 °F 79% 29.99 in 10.0 mi Calm Calm - N/A   Clear
2:53 AM 84.0 °F 92.6 °F 75.9 °F 76% 29.97 in 10.0 mi North 3.5 mph - N/A   Clear
3:53 AM 82.9 °F 90.8 °F 75.9 °F 79% 29.96 in 10.0 mi NNE 3.5 mph - N/A   Mostly Cloudy
4:12 AM 84.0 °F 93.7 °F 77.0 °F 79% 29.97 in 10.0 mi ESE 6.9 mph - N/A   Mostly Cloudy
4:23 AM 82.9 °F 91.8 °F 77.0 °F 82% 29.97 in 10.0 mi SE 9.2 mph - N/A   Scattered Clouds
4:53 AM 82.9 °F 91.8 °F 77.0 °F 82% 29.97 in 10.0 mi East 6.9 mph - N/A   Clear
5:53 AM 84.0 °F 94.8 °F 78.1 °F 82% 29.98 in 10.0 mi East 8.1 mph - N/A   Clear
6:53 AM 84.0 °F 93.7 °F 77.0 °F 79% 29.99 in 10.0 mi ENE 10.4 mph - N/A   Clear
7:53 AM 82.9 °F 91.8 °F 77.0 °F 82% 30.02 in 10.0 mi East 10.4 mph - N/A   Clear
8:53 AM 84.0 °F 94.8 °F 78.1 °F 82% 30.04 in 10.0 mi East 11.5 mph - N/A   Clear
9:53 AM 84.9 °F 96.6 °F 78.1 °F 80% 30.06 in 10.0 mi ESE 10.4 mph - N/A   Clear
10:53 AM 86.0 °F 96.9 °F 77.0 °F 74% 30.06 in 10.0 mi ESE 8.1 mph - N/A   Clear
11:53 AM 88.0 °F 100.2 °F 77.0 °F 70% 30.06 in 10.0 mi ESE 6.9 mph - N/A   Clear
12:53 PM 90.0 °F 102.5 °F 77.0 °F 65% 30.05 in 10.0 mi East 5.8 mph - N/A   Clear
1:53 PM 90.0 °F 101.3 °F 75.9 °F 63% 30.04 in 10.0 mi NE 3.5 mph - N/A   Clear
2:53 PM 91.9 °F 103.2 °F 75.0 °F 58% 30.02 in 10.0 mi Calm Calm - N/A   Clear
3:53 PM 91.9 °F 101.3 °F 73.9 °F 55% 30.01 in 10.0 mi SE 3.5 mph - N/A   Clear
4:53 PM 91.9 °F 101.3 °F 73.9 °F 55% 30.01 in 10.0 mi SSW 5.8 mph - N/A   Clear
5:42 PM 79.0 °F - 75.0 °F 88% 30.05 in 1.8 mi SE 10.4 mph - 0.05 in Rain Heavy Rain
5:53 PM 79.0 °F - 73.9 °F 84% 30.02 in 1.0 mi ESE 11.5 mph 29.9 mph 0.18 in Rain Heavy Rain
6:06 PM 79.0 °F - 73.9 °F 84% 30.00 in 3.0 mi NNE 9.2 mph - 0.05 in Rain Rain
6:53 PM 82.0 °F 87.9 °F 73.9 °F 76% 30.03 in 10.0 mi NNW 5.8 mph - 0.05 in Rain Light Rain
7:53 PM 80.1 °F 85.4 °F 75.9 °F 87% 30.06 in 10.0 mi NE 11.5 mph - 0.00 in Rain Light Rain
8:53 PM 80.1 °F 85.4 °F 75.9 °F 87% 30.08 in 9.0 mi NE 11.5 mph - 0.06 in Rain Light Rain
9:53 PM 80.1 °F 85.4 °F 75.9 °F 87% 30.08 in 10.0 mi NE 6.9 mph - 0.01 in   Clear
10:53 PM 81.0 °F 86.7 °F 75.0 °F 82% 30.04 in 10.0 mi East 4.6 mph - N/A   Clear
11:53 PM 81.0 °F 86.2 °F 73.9 °F 79% 30.05 in 10.0 mi ESE 6.9 mph - N/A   Clear